Regional Weather Roundup
Issued by NWS

Home | Current Version | Previous Version | Graphics & Text | Print | Product List | Glossary On
Versions: 1 2 3 4 5 6 7 8 9 10 11 12 13 14 15 16 17 18 19 20 21 22 23 24 25 26 27 28 29 30 31 32 33 34 35 36 37 38 39 40 41 42 43 44 45 46 47 48 49 50
000
ASUS43 KLSX 250259
RWRMO

WEATHER SUMMARY FOR MISSOURI
NATIONAL WEATHER SERVICE SPRINGFIELD MO
1000 PM CDT FRI APR 24 2015

NOTE: "FAIR" INDICATES FEW OR NO CLOUDS BELOW 12,000 FEET WITH NO
       SIGNIFICANT WEATHER AND/OR OBSTRUCTIONS TO VISIBILITY.
       CURRENT SKY AND/OR WEATHER CONDITIONS ARE NOT AVAILABLE FOR
       CHILLICOTHE AND FARMINGTON.

MOZ001>031-035>038-043-044-053-054-250400-
...NORTHERN AND WESTERN MISSOURI...

CITY           SKY/WX    TMP DP  RH WIND       PRES   REMARKS
KANSAS CTY INT CLOUDY    62  55  77 SE13      29.59R
KANSAS C DTWN  CLOUDY    64  54  69 SE8G20    29.59R
LEE`S SUMMIT   CLOUDY    62  54  74 SE6G17    29.61R
ST JOSEPH      PTCLDY    60  54  80 E10       29.57F
CHILLICOTHE      N/A     61  52  72 SE6       29.65R
KIRKSVILLE     CLOUDY    59  50  72 SE14      29.68R

$$
MOZ066>068-077>081-088>096-101>105-250400-
...SOUTHWEST MISSOURI...

CITY           SKY/WX    TMP DP  RH WIND       PRES   REMARKS
SPRINGFIELD    CLOUDY    57  54  89 SE20      29.63F
JOPLIN         MOCLDY    62  56  80 S21G31    29.58F

$$
MOZ032>034-039>042-045>050-055>058-069>072-250400-
...CENTRAL MISSOURI...

CITY           SKY/WX    TMP DP  RH WIND       PRES   REMARKS
COLUMBIA       MOCLDY    56  49  77 SE9       29.69S
JEFFERSON CITY MOCLDY    57  50  77 SE9       29.69S
ROLLA          CLOUDY    53  49  86 S21G28    29.69F
SEDALIA        CLOUDY    58  51  78 SE12      29.65S
OSAGE BEACH    CLOUDY    57  48  72 SE9       29.67F

$$
MOZ051-052-059>065-250400-
...EAST CENTRAL MISSOURI...

CITY           SKY/WX    TMP DP  RH WIND       PRES   REMARKS
ST LOUIS INTL  CLOUDY    57  44  62 SE12      29.77F
SPIRIT OF STL  CLOUDY    55  44  66 S6        29.75F
ST CHARLES     CLOUDY    56  45  66 SE10      29.76F

$$
MOZ072>076-082>087-097>100-106>115-250400-
...SOUTH CENTRAL AND SOUTHEAST MISSOURI...

CITY           SKY/WX    TMP DP  RH WIND       PRES   REMARKS
CAPE GIRARDEAU CLOUDY    56  48  74 S14G23    29.77F
FARMINGTON     CLOUDY    54  45  71 S8        29.83S
POPLAR BLUFF   CLOUDY    55  50  83 S5        29.77F
WEST PLAINS    FOG       52  51  97 SE6       29.73F VSB 1/2

$$


USA.gov is the U.S. government's official web portal to all federal, state and local government web resources and services.